When you browse on this site, cookies collect data to enhance your experience and personalize the content and advertising you see.
Visit our Privacy Policy to learn more. By continuing to use the site, you agree to this use of cookies and data.
  • In Latvia
  • List of Countries
  • For 7 days
  • Water Temperature
  • Weather Map
  • Weather Widgets
  • user-avatar
    Login

    Hourly Weather Bregenz

    Today, 18 August, Sunday

    Time Temperature Precipitation Wind Pressure Humidity
    00:00 +15°C° 0 mm 2 mps 647 mmHg 66%
    01:00 +15°C° 0 mm 2 mps 647 mmHg 68%
    02:00 +15°C° 0 mm 2 mps 647 mmHg 68%
    03:00 +14°C° 0 mm 2 mps 647 mmHg 68%
    04:00 +13°C° 0 mm 2 mps 646 mmHg 68%
    05:00 +14°C° 0 mm 2 mps 646 mmHg 68%
    06:00 +14°C° 0 mm 2 mps 647 mmHg 68%
    07:00 +15°C° 0 mm 2 mps 647 mmHg 68%
    08:00 +18°C° 0 mm 2 mps 647 mmHg 61%
    09:00 +21°C° 0 mm 1 mps 648 mmHg 54%
    10:00 +24°C° 0 mm 1 mps 649 mmHg 47%
    11:00 +25°C° 0 mm 1 mps 649 mmHg 45%
    12:00 +26°C° 0 mm 1 mps 649 mmHg 43%
    13:00 +27°C° 0 mm 1 mps 649 mmHg 41%
    14:00 +26°C° 0 mm 1 mps 649 mmHg 45%
    15:00 +26°C° 0 mm 1 mps 649 mmHg 49%
    16:00 +25°C° 0 mm 1 mps 648 mmHg 53%
    17:00 +23°C° 0.1 mm 2 mps 648 mmHg 62%
    18:00 +20°C° 0.1 mm 2 mps 648 mmHg 71%
    19:00 +18°C° 0.1 mm 2 mps 647 mmHg 80%
    20:00 +16°C° 1 mm 2 mps 647 mmHg 84%
    21:00 +15°C° 1 mm 1 mps 647 mmHg 87%
    22:00 +14°C° 1 mm 1 mps 647 mmHg 91%
    23:00 +13°C° 1.4 mm 1 mps 647 mmHg 92%

    Tomorrow, 19 August, Monday

    Time Temperature Precipitation Wind Pressure Humidity
    00:00 +13°C° 1.4 mm 1 mps 647 mmHg 93%
    01:00 +13°C° 1.4 mm 1 mps 647 mmHg 94%
    02:00 +13°C° 0.7 mm 1 mps 647 mmHg 94%
    03:00 +13°C° 0.7 mm 1 mps 647 mmHg 94%
    04:00 +13°C° 0.7 mm 2 mps 647 mmHg 94%
    05:00 +13°C° 2.7 mm 2 mps 648 mmHg 95%
    06:00 +12°C° 2.7 mm 1 mps 648 mmHg 95%
    07:00 +12°C° 2.7 mm 1 mps 648 mmHg 96%
    08:00 +14°C° 0.2 mm 1 mps 649 mmHg 91%
    09:00 +15°C° 0.2 mm 1 mps 649 mmHg 87%
    10:00 +16°C° 0.2 mm 1 mps 649 mmHg 82%
    11:00 +16°C° 0.5 mm 1 mps 650 mmHg 81%
    12:00 +18°C° 0.5 mm 1 mps 650 mmHg 80%
    13:00 +18°C° 0.5 mm 1 mps 650 mmHg 79%
    14:00 +18°C° 0.4 mm 1 mps 650 mmHg 76%
    15:00 +19°C° 0.4 mm 1 mps 650 mmHg 74%
    16:00 +19°C° 0.4 mm 1 mps 650 mmHg 72%
    17:00 +18°C° 0.1 mm 1 mps 650 mmHg 76%
    18:00 +16°C° 0.1 mm 1 mps 650 mmHg 80%
    19:00 +14°C° 0.1 mm 0 mps 650 mmHg 84%
    20:00 +13°C° 0.1 mm 0 mps 650 mmHg 86%
    21:00 +13°C° 0.1 mm 0 mps 649 mmHg 87%
    22:00 +12°C° 0.1 mm 0 mps 649 mmHg 88%
    23:00 +12°C° 0.2 mm 0 mps 649 mmHg 90%

    Day after tomorrow, 20 August, Tuesday

    Time Temperature Precipitation Wind Pressure Humidity
    00:00 +13°C° 0.2 mm 1 mps 649 mmHg 91%
    01:00 +13°C° 0.2 mm 1 mps 649 mmHg 92%
    02:00 +12°C° 0.2 mm 1 mps 649 mmHg 93%
    03:00 +12°C° 0.2 mm 1 mps 649 mmHg 94%
    04:00 +12°C° 0.2 mm 1 mps 649 mmHg 94%
    05:00 +12°C° 0.1 mm 1 mps 649 mmHg 95%
    06:00 +12°C° 0.1 mm 1 mps 649 mmHg 95%
    07:00 +12°C° 0.1 mm 1 mps 649 mmHg 96%
    08:00 +13°C° 0 mm 1 mps 649 mmHg 94%
    09:00 +14°C° 0 mm 1 mps 650 mmHg 92%
    10:00 +14°C° 0 mm 1 mps 650 mmHg 90%
    11:00 +15°C° 0.3 mm 1 mps 650 mmHg 90%
    12:00 +15°C° 0.3 mm 2 mps 650 mmHg 90%
    13:00 +15°C° 0.3 mm 2 mps 650 mmHg 90%
    14:00 +14°C° 1.9 mm 2 mps 650 mmHg 93%
    15:00 +13°C° 1.9 mm 2 mps 650 mmHg 95%
    16:00 +12°C° 1.9 mm 2 mps 650 mmHg 98%
    17:00 +10°C° 3.1 mm 2 mps 650 mmHg 98%
    18:00 +9°C° 3.1 mm 2 mps 650 mmHg 98%
    19:00 +9°C° 3.1 mm 2 mps 650 mmHg 98%
    20:00 +8°C° 3.1 mm 2 mps 651 mmHg 98%
    21:00 +8°C° 3.1 mm 2 mps 651 mmHg 98%
    22:00 +8°C° 3.1 mm 2 mps 651 mmHg 98%
    23:00 +8°C° 3.9 mm 1 mps 651 mmHg 98%

    21 August, Wednesday

    Time Temperature Precipitation Wind Pressure Humidity
    00:00 +8°C° 3.9 mm 1 mps 651 mmHg 99%
    01:00 +8°C° 3.9 mm 1 mps 651 mmHg 99%
    02:00 +8°C° 2.2 mm 1 mps 651 mmHg 98%
    03:00 +8°C° 2.2 mm 1 mps 651 mmHg 98%
    04:00 +8°C° 2.2 mm 1 mps 651 mmHg 98%
    05:00 +8°C° 1.4 mm 1 mps 651 mmHg 97%
    06:00 +8°C° 1.4 mm 1 mps 651 mmHg 97%
    07:00 +9°C° 1.4 mm 1 mps 651 mmHg 96%
    08:00 +10°C° 0 mm 1 mps 652 mmHg 90%
    09:00 +11°C° 0 mm 1 mps 652 mmHg 85%
    10:00 +13°C° 0 mm 1 mps 652 mmHg 79%
    11:00 +14°C° 0 mm 2 mps 652 mmHg 75%
    12:00 +14°C° 0 mm 2 mps 652 mmHg 71%
    13:00 +15°C° 0 mm 2 mps 652 mmHg 67%
    14:00 +15°C° 0 mm 2 mps 652 mmHg 68%
    15:00 +14°C° 0 mm 3 mps 652 mmHg 70%
    16:00 +14°C° 0 mm 3 mps 652 mmHg 71%
    17:00 +14°C° 0 mm 2 mps 651 mmHg 77%
    18:00 +13°C° 0 mm 2 mps 651 mmHg 82%
    19:00 +12°C° 0 mm 1 mps 651 mmHg 87%
    20:00 +11°C° 0 mm 1 mps 651 mmHg 90%
    21:00 +10°C° 0 mm 1 mps 651 mmHg 92%
    22:00 +10°C° 0 mm 1 mps 651 mmHg 94%
    23:00 +9°C° 0 mm 1 mps 651 mmHg 94%

    22 August, Thursday

    Time Temperature Precipitation Wind Pressure Humidity
    00:00 +9°C° 0 mm 1 mps 650 mmHg 94%
    01:00 +8°C° 0 mm 0 mps 650 mmHg 94%
    02:00 +8°C° 0 mm 0 mps 650 mmHg 94%
    03:00 +8°C° 0 mm 0 mps 650 mmHg 94%
    04:00 +8°C° 0 mm 0 mps 650 mmHg 94%
    05:00 +8°C° 0 mm 0 mps 650 mmHg 93%
    06:00 +9°C° 0 mm 0 mps 650 mmHg 92%
    07:00 +10°C° 0 mm 0 mps 651 mmHg 90%
    08:00 +11°C° 0 mm 0 mps 651 mmHg 86%
    09:00 +13°C° 0 mm 1 mps 652 mmHg 82%
    10:00 +14°C° 0 mm 1 mps 652 mmHg 78%
    11:00 +15°C° 0 mm 1 mps 652 mmHg 76%
    12:00 +15°C° 0 mm 1 mps 652 mmHg 75%
    13:00 +16°C° 0 mm 2 mps 652 mmHg 73%
    14:00 +16°C° 0 mm 2 mps 652 mmHg 74%
    15:00 +16°C° 0 mm 2 mps 652 mmHg 75%
    16:00 +16°C° 0 mm 2 mps 652 mmHg 76%
    17:00 +15°C° 0 mm 1 mps 652 mmHg 81%
    18:00 +14°C° 0 mm 1 mps 652 mmHg 87%
    19:00 +13°C° 0 mm 1 mps 652 mmHg 92%
    20:00 +13°C° 0 mm 1 mps 652 mmHg 92%
    21:00 +13°C° 0 mm 1 mps 652 mmHg 93%
    22:00 +11°C° 0 mm 0 mps 652 mmHg 93%
    23:00 +12°C° 0 mm 1 mps 652 mmHg 93%

    23 August, Friday

    Time Temperature Precipitation Wind Pressure Humidity
    00:00 +12°C° 0 mm 1 mps 652 mmHg 93%
    01:00 +11°C° 0 mm 1 mps 651 mmHg 93%
    02:00 +11°C° 0 mm 1 mps 651 mmHg 93%
    03:00 +10°C° 0 mm 1 mps 650 mmHg 93%
    04:00 +9°C° 0 mm 1 mps 650 mmHg 93%
    05:00 +10°C° 0 mm 1 mps 650 mmHg 91%
    06:00 +11°C° 0 mm 1 mps 651 mmHg 89%
    07:00 +12°C° 0 mm 1 mps 651 mmHg 88%
    08:00 +14°C° 0 mm 1 mps 651 mmHg 81%
    09:00 +16°C° 0 mm 1 mps 652 mmHg 74%
    10:00 +19°C° 0 mm 1 mps 652 mmHg 68%
    11:00 +20°C° 0 mm 1 mps 653 mmHg 66%
    12:00 +21°C° 0 mm 1 mps 653 mmHg 64%
    13:00 +21°C° 0 mm 2 mps 653 mmHg 62%
    14:00 +20°C° 0.1 mm 2 mps 652 mmHg 64%
    15:00 +20°C° 0.1 mm 2 mps 652 mmHg 67%
    16:00 +20°C° 0.1 mm 2 mps 652 mmHg 69%
    17:00 +19°C° 0.2 mm 1 mps 651 mmHg 77%
    18:00 +18°C° 0.2 mm 1 mps 651 mmHg 85%
    19:00 +15°C° 0.2 mm 1 mps 650 mmHg 92%
    20:00 +14°C° 0 mm 1 mps 650 mmHg 93%
    21:00 +13°C° 0 mm 1 mps 650 mmHg 93%
    22:00 +12°C° 0 mm 1 mps 650 mmHg 93%
    23:00 +12°C° 0 mm 1 mps 650 mmHg 93%
    Show more